Location: Gwatt
(46.7204°N, 7.6223°E)
Time: 13:29:05
(UTC+00:00)

S-56A Canister/Altair - Pass Details

Date: 21 January 2021
Orbit: 632 x 2501 km, 38.9° (Epoch: 28 February)

Event Time Altitude Azimuth Distance (km) Brightness Sun altitude
Rises 08:46:38 0° 264° (W) 3,559 10.6 12.7°
Reaches altitude 10° 08:50:07 10° 242° (WSW) 2,896 10.4 13.1°
Maximum altitude 08:54:02 16° 208° (SSW) 2,823 10.8 13.6°
Drops below altitude 10° 08:58:45 10° 176° (S) 3,626 12.0 14.1°
Sets 09:04:05 0° 157° (SSE) 5,040 13.3 14.7°
